Regional Weather Roundup
Issued by NWS

Home | Current Version | Previous Version | Text Only | Print | Product List | Glossary On
Versions: 1 2 3 4 5 6 7 8 9 10 11 12 13 14 15 16 17 18 19 20 21 22 23 24 25 26 27 28 29 30 31 32 33 34 35 36 37 38 39 40 41 42 43 44 45 46 47 48 49 50
000
ASUS44 KLIX 272007
RWRLA
LOUISIANA WEATHER ROUNDUP
NATIONAL WEATHER SERVICE NEW ORLEANS LA
300 PM CDT WED MAY 27 2015

NOTE: "FAIR" INDICATES FEW OR NO CLOUDS BELOW 12,000 FEET WITH NO
      SIGNIFICANT WEATHER AND/OR OBSTRUCTIONS TO VISIBILITY.
      SKY/WX - SKY CONDITION AND SIGNIFICANT WEATHER.
      TMP - AIR TEMPERATURE.    DP   - DEWPOINT TEMPERATURE.
      RH  - RELATIVE HUMIDITY.  PRES - PRESSURE.
      HX  - HEAT INDEX.         WCI  - WIND CHILL INDEX.

*  THESE STATIONS ARE NOT NWS OR FAA STATIONS AND ARE NOT UNDER
   NWS QUALITY CONTROL.

LAZ040-048-061>063-065-066-069-272100-
SOUTHEAST LOUISIANA

CITY           SKY/WX    TMP DP  RH WIND       PRES   REMARKS
N.O. AUDUBON     N/A     73  70  91 MISG        N/A
N.O. INTL ARPT CLOUDY    73  66  78 SE5       30.15F
N.O. LAKEFRONT CLOUDY    77  64  64 CALM      30.16F
SLIDELL        CLOUDY    70  69  97 CALM      30.15F
BATON ROUGE    CLOUDY    70  67  90 E6        30.12F
BOOTHVILLE     CLOUDY    76  70  82 NW17G26   30.15F
BELLE CHASSE   CLOUDY    73  67  81 CALM      30.16F
BOGALUSA*      TSTM      72  67  85 CALM      30.15F
GALLIANO*      LGT RAIN  74  67  77 W9        30.17F
NEW ROADS*     FAIR      72  67  85 NE8       30.12F
GONZALES*      LGT RAIN  69  69 100 SE3       30.12F
HAMMOND*       LGT RAIN  70  66  88 S7        30.16R
HOUMA*         PTSUNNY   66  66 100 SE7       30.17F FOG
PORT FOURCHON* PTCLDY    73  66  78 NW16G26   30.16F

$$

LAZ041-044-053-054-272100-
SOUTHWEST LOUISIANA

CITY           SKY/WX    TMP DP  RH WIND       PRES   REMARKS
LAKE CHARLES   MOSUNNY   85  69  58 CALM      30.05R
LAFAYETTE      CLOUDY    76  67  73 NE3       30.07F
PATTERSON      CLOUDY    70  66  88 E9        30.10F
SALT POINT       N/A     72  67  84 SE8       30.09F
NEW IBERIA     CLOUDY    78  69  73 N8        30.09S
CHENAULT AIRPK SUNNY     84  66  54 CALM      30.06F

$$

LAZ027-028-272100-
CENTRAL LOUISIANA

CITY           SKY/WX    TMP DP  RH WIND       PRES   REMARKS
FORT POLK      CLOUDY    81  67  63 W6        30.06F
ALEXANDRIA INT CLOUDY    83  66  56 VRB6      30.06F
ALEXANDRIA     PTSUNNY   83  67  58 CALM      30.09F

$$

LAZ001-002-272100-
NORTHWEST LOUISIANA

CITY           SKY/WX    TMP DP  RH WIND       PRES   REMARKS
SHREVEPORT     MOSUNNY   84  68  58 S8        30.06F
BARKSDALE AFB  PTSUNNY   83  68  60 SE3       30.07F
DTN SHREVEPORT MOSUNNY   83  67  58 E3        30.07F

$$

LAZ014-016-272100-
NORTHEAST LOUISIANA

CITY           SKY/WX    TMP DP  RH WIND       PRES   REMARKS
MONROE         CLOUDY    77  69  76 VRB3      30.11F
TALLULAH       CLOUDY    81  68  64 VRB3      30.10F

$$



USA.gov is the U.S. government's official web portal to all federal, state and local government web resources and services.